sat.trackr.live / text

‹ back to catalog

TRANSPORTER-15 OBJECT AB

NORAD 66691 · 2025-276AB

PAYLOAD ACTIVE UNKNOWN

§ Identity

Operator
Country
TBD
Launch date
2025-11-28
Launch site
AFWTR
Launch vehicle
Mass (kg)
RCS (m²)

External: N2YO · Heavens-Above · Gunter

§ Orbital elements

Epoch: 2026-05-25T04:21:04.046976Z

Period
94.71 min
Inclination
97.4205°
Eccentricity
0.0006254
Mean motion
15.20489515 rev/d
Perigee alt
500.1 km
Apogee alt
508.7 km
Semi-major
6,882.5 km
B*
3.8924e-4
RAAN
219.2265°
Arg perigee
86.0272°
Mean anomaly
274.1679°
Rev number
2,693

§ Raw data

TRANSPORTER-15 OBJECT AB1 66691U 25276AB  26145.18129684  .00008442  00000+0  38924-3 0  99932 66691  97.4205 219.2265 0006254  86.0272 274.1679 15.20489515 26932

JSON: /api/v1/satellites/66691 · /tle

For live sub-satellite position, see the globe view (requires WebGL).

§ Visibility from observer

Set your observer location to see the next 7 days of passes ≥ 10°. The values pass through the URL so the page stays shareable.

No JS? Fill the form by hand. The geolocation button needs JavaScript.